World > North America > United States > Texas > Hasse

Hourly Hasse, TX Regional Weather

Feedback E-mail the Weather

Quick WX

Hasse, TX Weather Maps

°F °C°F °C
Hasse Weather Map
UTC Time: 8/18/2022, 01:41
Your Time:

Hasse, TX Regional Weather

Expires:202208180200;;226857
ASUS44 KFWD 180115
RWRTX 
NORTH TEXAS HOURLY WEATHER ROUNDUP
NATIONAL WEATHER SERVICE FORT WORTH TX
800 PM CDT WED AUG 17 2022

NOTE: "FAIR" INDICATES FEW OR NO CLOUDS BELOW 12,000 FEET WITH NO
SIGNIFICANT WEATHER AND/OR OBSTRUCTIONS TO VISIBILITY.


TXZ083>090-098>101-113>116-127>130-139>142-154-155-180200-
WESTERN NORTH TEXAS
  
CITY           SKY/WX    TMP DP  RH WIND       PRES   REMARKS
WICHITA FALLS  MOCLDY    88  66  48 NE20      29.97S HX  90           
VERNON         FAIR      89  63  41 NE15      30.01S                  
ABILENE        FAIR      93  62  35 NE12      29.96S HX  93           
ABILENE-DYESS  FAIR      94  58  29 E15       29.94S HX  92           
GRAHAM         FAIR      94  64  36 NE8       29.92R HX  96           
BRECKENRIDGE   FAIR      97  61  30 N6        29.93R HAZE    HX  97   
CISCO          DRIZZLE   82  68  61 W7        29.93S                  
EASTLAND       TSTM      79  66  64 NW20G36   29.96R                  
RANGER         FAIR      88  59  37 NE7       29.95R                  
MINERAL WELLS  MOCLDY    84  63  49 SE20G38   29.91R THUNDER          
STEPHENVILLE   CLOUDY    78  68  71 S6        29.99S                  
COLEMAN        FAIR      96  55  25 SE6       29.95S HX  93           
SAN SABA       FAIR      96  60  30 E8        29.93S HX  96           
$$


SKY/WX - Weather  TMP - Temperature  DP - Dew Point  RH - Humidity
WIND - Wind Direction/Speed PRES - Barometric Pressure VSB - Visibility
WCI - Wind Chill Index E13G22 Wind - East Wind 13 mph/Gusts of 22 mph

Trending Headlines

Hasse Radar Loop



Hasse Quick Facts


National Two Day Weather Forecast


E-mail the Hasse Weather Forecast

Voice your opinion or tell us about page issues...